When you browse on this site, cookies collect data to enhance your experience and personalize the content and advertising you see.
Visit our Privacy Policy to learn more. By continuing to use the site, you agree to this use of cookies and data.
  • en Suisse
  • Liste des pays
  • À 7 jours
  • Température de l'eau
  • Carte satellitaire
  • Carte météo
  • Widgets météo
  • user-avatar
    Se connecter

    Météo par heure à Benguela

    Ce jour, 20 Mars, Mercredi

    Heure Température Précipitation Vent Pression Humidité
    00:00 +30°C° 0 mm 2 m/s 757 mmHg 77%
    01:00 +29°C° 0 mm 1 m/s 757 mmHg 77%
    02:00 +29°C° 0 mm 1 m/s 757 mmHg 77%
    03:00 +29°C° 0 mm 1 m/s 756 mmHg 77%
    04:00 +29°C° 0 mm 1 m/s 756 mmHg 77%
    05:00 +30°C° 0 mm 1 m/s 756 mmHg 75%
    06:00 +30°C° 0 mm 1 m/s 757 mmHg 74%
    07:00 +30°C° 0 mm 1 m/s 757 mmHg 73%
    08:00 +32°C° 0 mm 2 m/s 757 mmHg 67%
    09:00 +34°C° 0 mm 2 m/s 757 mmHg 62%
    10:00 +36°C° 0 mm 3 m/s 757 mmHg 56%
    11:00 +36°C° 0 mm 3 m/s 756 mmHg 56%
    12:00 +36°C° 0 mm 4 m/s 756 mmHg 56%
    13:00 +37°C° 0 mm 5 m/s 755 mmHg 57%
    14:00 +36°C° 0.2 mm 4 m/s 755 mmHg 60%
    15:00 +35°C° 0.2 mm 4 m/s 754 mmHg 62%
    16:00 +34°C° 0.2 mm 4 m/s 754 mmHg 65%
    17:00 +33°C° 0.7 mm 3 m/s 755 mmHg 69%
    18:00 +31°C° 0.7 mm 3 m/s 755 mmHg 74%
    19:00 +29°C° 0.7 mm 2 m/s 755 mmHg 79%
    20:00 +29°C° 1.9 mm 2 m/s 756 mmHg 81%
    21:00 +29°C° 1.9 mm 1 m/s 757 mmHg 83%
    22:00 +29°C° 1.9 mm 1 m/s 758 mmHg 85%
    23:00 +29°C° 0 mm 2 m/s 758 mmHg 84%

    Demain, 21 Mars, Jeudi

    Heure Température Précipitation Vent Pression Humidité
    00:00 +29°C° 0 mm 2 m/s 758 mmHg 84%
    01:00 +29°C° 0 mm 3 m/s 758 mmHg 84%
    02:00 +29°C° 0 mm 2 m/s 757 mmHg 83%
    03:00 +29°C° 0 mm 2 m/s 757 mmHg 83%
    04:00 +29°C° 0 mm 1 m/s 757 mmHg 82%
    05:00 +29°C° 0 mm 1 m/s 757 mmHg 82%
    06:00 +29°C° 0 mm 1 m/s 758 mmHg 82%
    07:00 +29°C° 0 mm 1 m/s 758 mmHg 81%
    08:00 +30°C° 0 mm 1 m/s 758 mmHg 77%
    09:00 +31°C° 0 mm 1 m/s 758 mmHg 72%
    10:00 +30°C° 0 mm 0 m/s 758 mmHg 68%
    11:00 +33°C° 0 mm 1 m/s 758 mmHg 63%
    12:00 +35°C° 0 mm 2 m/s 757 mmHg 58%
    13:00 +36°C° 0 mm 3 m/s 757 mmHg 53%
    14:00 +36°C° 0 mm 4 m/s 756 mmHg 56%
    15:00 +35°C° 0 mm 4 m/s 756 mmHg 58%
    16:00 +35°C° 0 mm 5 m/s 755 mmHg 60%
    17:00 +34°C° 0 mm 4 m/s 756 mmHg 67%
    18:00 +31°C° 0 mm 3 m/s 756 mmHg 73%
    19:00 +30°C° 0 mm 2 m/s 757 mmHg 80%
    20:00 +30°C° 0 mm 2 m/s 757 mmHg 80%
    21:00 +30°C° 0 mm 2 m/s 758 mmHg 80%
    22:00 +30°C° 0 mm 2 m/s 759 mmHg 80%
    23:00 +30°C° 0 mm 2 m/s 758 mmHg 80%

    Après-demain, 22 Mars, Vendredi

    Heure Température Précipitation Vent Pression Humidité
    00:00 +30°C° 0 mm 2 m/s 758 mmHg 80%
    01:00 +30°C° 0 mm 2 m/s 757 mmHg 80%
    02:00 +30°C° 0 mm 2 m/s 757 mmHg 80%
    03:00 +29°C° 0 mm 2 m/s 756 mmHg 79%
    04:00 +29°C° 0 mm 2 m/s 756 mmHg 79%
    05:00 +30°C° 0 mm 2 m/s 756 mmHg 77%
    06:00 +30°C° 0 mm 2 m/s 756 mmHg 75%
    07:00 +30°C° 0 mm 2 m/s 757 mmHg 73%
    08:00 +32°C° 0 mm 2 m/s 757 mmHg 63%
    09:00 +34°C° 0 mm 1 m/s 757 mmHg 52%
    10:00 +37°C° 0 mm 1 m/s 758 mmHg 42%
    11:00 +39°C° 0 mm 2 m/s 757 mmHg 39%
    12:00 +40°C° 0 mm 3 m/s 756 mmHg 37%
    13:00 +42°C° 0 mm 4 m/s 756 mmHg 35%
    14:00 +40°C° 0 mm 4 m/s 756 mmHg 42%
    15:00 +39°C° 0 mm 5 m/s 755 mmHg 48%
    16:00 +36°C° 0 mm 5 m/s 755 mmHg 55%
    17:00 +35°C° 2.2 mm 4 m/s 755 mmHg 63%
    18:00 +33°C° 2.2 mm 3 m/s 756 mmHg 70%
    19:00 +30°C° 2.2 mm 2 m/s 757 mmHg 78%
    20:00 +30°C° 1.3 mm 2 m/s 757 mmHg 78%
    21:00 +30°C° 1.3 mm 1 m/s 758 mmHg 78%
    22:00 +30°C° 1.3 mm 1 m/s 759 mmHg 78%
    23:00 +30°C° 0 mm 1 m/s 759 mmHg 77%

    23 Mars, Samedi

    Heure Température Précipitation Vent Pression Humidité
    00:00 +30°C° 0 mm 2 m/s 758 mmHg 76%
    01:00 +30°C° 0 mm 2 m/s 758 mmHg 76%
    02:00 +30°C° 0 mm 2 m/s 757 mmHg 75%
    03:00 +30°C° 0 mm 2 m/s 757 mmHg 74%
    04:00 +30°C° 0 mm 2 m/s 757 mmHg 74%
    05:00 +30°C° 0 mm 2 m/s 757 mmHg 72%
    06:00 +30°C° 0 mm 2 m/s 757 mmHg 71%
    07:00 +30°C° 0 mm 2 m/s 758 mmHg 69%
    08:00 +31°C° 0 mm 2 m/s 758 mmHg 65%
    09:00 +32°C° 0 mm 1 m/s 758 mmHg 62%
    10:00 +33°C° 0 mm 1 m/s 758 mmHg 58%
    11:00 +35°C° 0 mm 2 m/s 757 mmHg 55%
    12:00 +36°C° 0 mm 3 m/s 757 mmHg 52%
    13:00 +38°C° 0 mm 4 m/s 756 mmHg 49%
    14:00 +37°C° 0 mm 4 m/s 755 mmHg 53%
    15:00 +36°C° 0 mm 4 m/s 755 mmHg 56%
    16:00 +35°C° 0 mm 4 m/s 755 mmHg 60%
    17:00 +34°C° 0 mm 4 m/s 755 mmHg 63%
    18:00 +33°C° 0 mm 4 m/s 756 mmHg 65%
    19:00 +32°C° 0 mm 4 m/s 756 mmHg 68%
    20:00 +31°C° 0.1 mm 3 m/s 757 mmHg 70%
    21:00 +30°C° 0.1 mm 2 m/s 757 mmHg 72%
    22:00 +28°C° 0.1 mm 0 m/s 758 mmHg 73%
    23:00 +30°C° 0.3 mm 1 m/s 758 mmHg 74%

    24 Mars, Dimanche

    Heure Température Précipitation Vent Pression Humidité
    00:00 +30°C° 0.3 mm 1 m/s 758 mmHg 75%
    01:00 +30°C° 0.3 mm 1 m/s 757 mmHg 75%
    02:00 +30°C° 0 mm 1 m/s 757 mmHg 75%
    03:00 +30°C° 0 mm 1 m/s 757 mmHg 76%
    04:00 +30°C° 0 mm 2 m/s 756 mmHg 76%
    05:00 +30°C° 0 mm 2 m/s 757 mmHg 77%
    06:00 +30°C° 0 mm 2 m/s 757 mmHg 77%
    07:00 +30°C° 0 mm 1 m/s 757 mmHg 78%
    08:00 +31°C° 0 mm 2 m/s 757 mmHg 73%
    09:00 +32°C° 0 mm 2 m/s 757 mmHg 68%
    10:00 +34°C° 0 mm 2 m/s 758 mmHg 63%
    11:00 +35°C° 0 mm 3 m/s 757 mmHg 61%
    12:00 +36°C° 0 mm 4 m/s 756 mmHg 58%
    13:00 +36°C° 0 mm 5 m/s 756 mmHg 56%
    14:00 +35°C° 0.3 mm 4 m/s 755 mmHg 60%
    15:00 +34°C° 0.3 mm 4 m/s 755 mmHg 64%
    16:00 +33°C° 0.3 mm 3 m/s 755 mmHg 68%
    17:00 +33°C° 0.2 mm 3 m/s 755 mmHg 71%
    18:00 +31°C° 0.2 mm 2 m/s 756 mmHg 73%
    19:00 +30°C° 0.2 mm 1 m/s 757 mmHg 76%
    20:00 +30°C° 0 mm 1 m/s 757 mmHg 77%
    21:00 +30°C° 0 mm 1 m/s 757 mmHg 78%
    22:00 +29°C° 0 mm 1 m/s 757 mmHg 79%
    23:00 +29°C° 0 mm 1 m/s 757 mmHg 79%

    25 Mars, Lundi

    Heure Température Précipitation Vent Pression Humidité
    00:00 +29°C° 0 mm 2 m/s 757 mmHg 80%
    01:00 +29°C° 0 mm 2 m/s 756 mmHg 80%
    02:00 +29°C° 0 mm 2 m/s 756 mmHg 80%
    03:00 +29°C° 0 mm 2 m/s 756 mmHg 81%
    04:00 +29°C° 0 mm 2 m/s 756 mmHg 81%
    05:00 +29°C° 0 mm 2 m/s 756 mmHg 80%
    06:00 +29°C° 0 mm 1 m/s 756 mmHg 78%
    07:00 +30°C° 0 mm 1 m/s 757 mmHg 77%
    08:00 +31°C° 0 mm 1 m/s 757 mmHg 72%
    09:00 +32°C° 0 mm 1 m/s 757 mmHg 68%
    10:00 +34°C° 0 mm 2 m/s 757 mmHg 63%
    11:00 +35°C° 0 mm 3 m/s 757 mmHg 61%
    12:00 +35°C° 0 mm 3 m/s 756 mmHg 60%
    13:00 +36°C° 0 mm 4 m/s 755 mmHg 59%
    14:00 +35°C° 0 mm 4 m/s 755 mmHg 62%
    15:00 +34°C° 0 mm 3 m/s 755 mmHg 66%
    16:00 +33°C° 0 mm 3 m/s 755 mmHg 70%
    17:00 +31°C° 0 mm 2 m/s 755 mmHg 72%
    18:00 +31°C° 0 mm 2 m/s 756 mmHg 75%
    19:00 +30°C° 0 mm 2 m/s 756 mmHg 78%
    20:00 +30°C° 0 mm 2 m/s 757 mmHg 79%
    21:00 +30°C° 0 mm 1 m/s 757 mmHg 80%
    22:00 +29°C° 0 mm 1 m/s 758 mmHg 81%
    23:00 +29°C° 0 mm 1 m/s 758 mmHg 82%
    Voir plus